• In Portugal
  • List of Countries
  • For 7 days
  • Water Temperature
  • Satellite Maps
  • Weather Map
  • Weather Widgets
  • user-avatar
    Login

    Hourly Weather Mendoza

    Today, 17 December, Sunday

    Time Temperature Precipitation Wind Pressure Humidity
    00:00 +30°C° 0.2 mm 7 mps 695 mmHg 17%
    01:00 +28°C° 0.2 mm 8 mps 696 mmHg 19%
    02:00 +26°C° 0 mm 7 mps 697 mmHg 24%
    03:00 +22°C° 0 mm 7 mps 698 mmHg 29%
    04:00 +18°C° 0 mm 7 mps 699 mmHg 34%
    05:00 +19°C° 0 mm 6 mps 700 mmHg 32%
    06:00 +17°C° 0 mm 6 mps 700 mmHg 30%
    07:00 +17°C° 0 mm 5 mps 700 mmHg 28%
    08:00 +19°C° 0 mm 5 mps 701 mmHg 26%
    09:00 +20°C° 0 mm 5 mps 701 mmHg 24%
    10:00 +21°C° 0 mm 4 mps 701 mmHg 23%
    11:00 +22°C° 0 mm 4 mps 701 mmHg 22%
    12:00 +23°C° 0 mm 4 mps 701 mmHg 20%
    13:00 +25°C° 0 mm 4 mps 700 mmHg 19%
    14:00 +25°C° 0 mm 4 mps 700 mmHg 19%
    15:00 +26°C° 0 mm 3 mps 700 mmHg 19%
    16:00 +26°C° 0 mm 3 mps 699 mmHg 18%
    17:00 +25°C° 0 mm 3 mps 700 mmHg 19%
    18:00 +25°C° 0 mm 3 mps 700 mmHg 20%
    19:00 +24°C° 0 mm 2 mps 700 mmHg 21%
    20:00 +24°C° 0 mm 2 mps 700 mmHg 21%
    21:00 +23°C° 0 mm 2 mps 700 mmHg 22%
    22:00 +23°C° 0 mm 2 mps 700 mmHg 23%
    23:00 +21°C° 0 mm 2 mps 700 mmHg 24%

    Tomorrow, 18 December, Monday

    Time Temperature Precipitation Wind Pressure Humidity
    00:00 +21°C° 0 mm 2 mps 699 mmHg 25%
    01:00 +21°C° 0 mm 2 mps 698 mmHg 26%
    02:00 +21°C° 0 mm 1 mps 698 mmHg 27%
    03:00 +21°C° 0 mm 1 mps 698 mmHg 27%
    04:00 +21°C° 0 mm 1 mps 697 mmHg 28%
    05:00 +21°C° 0 mm 2 mps 697 mmHg 25%
    06:00 +24°C° 0 mm 2 mps 698 mmHg 22%
    07:00 +25°C° 0 mm 3 mps 698 mmHg 19%
    08:00 +27°C° 0 mm 3 mps 698 mmHg 18%
    09:00 +29°C° 0 mm 4 mps 698 mmHg 17%
    10:00 +32°C° 0 mm 5 mps 698 mmHg 17%
    11:00 +33°C° 0 mm 5 mps 697 mmHg 16%
    12:00 +34°C° 0 mm 5 mps 697 mmHg 16%
    13:00 +35°C° 0 mm 5 mps 696 mmHg 16%
    14:00 +35°C° 0 mm 5 mps 696 mmHg 16%
    15:00 +36°C° 0 mm 4 mps 696 mmHg 17%
    16:00 +36°C° 0 mm 4 mps 696 mmHg 17%
    17:00 +35°C° 0 mm 4 mps 696 mmHg 19%
    18:00 +34°C° 0 mm 3 mps 696 mmHg 20%
    19:00 +33°C° 0 mm 3 mps 697 mmHg 22%
    20:00 +31°C° 0 mm 3 mps 697 mmHg 24%
    21:00 +30°C° 0 mm 3 mps 697 mmHg 27%
    22:00 +30°C° 0 mm 4 mps 698 mmHg 29%
    23:00 +29°C° 0 mm 3 mps 697 mmHg 31%

    Day after tomorrow, 19 December, Tuesday

    Time Temperature Precipitation Wind Pressure Humidity
    00:00 +28°C° 0 mm 3 mps 697 mmHg 32%
    01:00 +28°C° 0 mm 3 mps 696 mmHg 33%
    02:00 +27°C° 0 mm 2 mps 696 mmHg 35%
    03:00 +26°C° 0 mm 2 mps 696 mmHg 38%
    04:00 +26°C° 0 mm 2 mps 696 mmHg 40%
    05:00 +27°C° 0 mm 2 mps 697 mmHg 37%
    06:00 +28°C° 0 mm 2 mps 697 mmHg 35%
    07:00 +29°C° 0 mm 3 mps 698 mmHg 33%
    08:00 +30°C° 0 mm 3 mps 698 mmHg 31%
    09:00 +31°C° 0 mm 3 mps 698 mmHg 29%
    10:00 +33°C° 0 mm 3 mps 698 mmHg 28%
    11:00 +34°C° 0 mm 3 mps 698 mmHg 26%
    12:00 +35°C° 0 mm 3 mps 697 mmHg 25%
    13:00 +36°C° 0 mm 3 mps 697 mmHg 23%
    14:00 +36°C° 0.1 mm 3 mps 697 mmHg 23%
    15:00 +37°C° 0.1 mm 3 mps 696 mmHg 22%
    16:00 +37°C° 0.1 mm 4 mps 696 mmHg 22%
    17:00 +36°C° 0.1 mm 3 mps 696 mmHg 24%
    18:00 +35°C° 0.1 mm 3 mps 697 mmHg 25%
    19:00 +34°C° 0.1 mm 2 mps 697 mmHg 27%
    20:00 +34°C° 0 mm 3 mps 697 mmHg 31%
    21:00 +33°C° 0 mm 4 mps 697 mmHg 35%
    22:00 +32°C° 0 mm 4 mps 698 mmHg 39%
    23:00 +30°C° 0 mm 4 mps 697 mmHg 41%

    20 December, Wednesday

    Time Temperature Precipitation Wind Pressure Humidity
    00:00 +30°C° 0 mm 3 mps 697 mmHg 44%
    01:00 +29°C° 0 mm 3 mps 697 mmHg 47%
    02:00 +29°C° 0 mm 2 mps 696 mmHg 47%
    03:00 +28°C° 0 mm 2 mps 696 mmHg 47%
    04:00 +28°C° 0 mm 2 mps 696 mmHg 47%
    05:00 +29°C° 0 mm 3 mps 696 mmHg 43%
    06:00 +30°C° 0 mm 3 mps 697 mmHg 39%
    07:00 +31°C° 0 mm 3 mps 697 mmHg 36%
    08:00 +33°C° 0 mm 4 mps 697 mmHg 31%
    09:00 +35°C° 0 mm 4 mps 696 mmHg 27%
    10:00 +37°C° 0 mm 5 mps 696 mmHg 23%
    11:00 +37°C° 0 mm 5 mps 696 mmHg 22%
    12:00 +39°C° 0 mm 6 mps 695 mmHg 20%
    13:00 +40°C° 0 mm 6 mps 694 mmHg 19%
    14:00 +40°C° 0 mm 6 mps 694 mmHg 19%
    15:00 +40°C° 0 mm 6 mps 694 mmHg 20%
    16:00 +40°C° 0 mm 6 mps 693 mmHg 20%
    17:00 +39°C° 0 mm 5 mps 693 mmHg 22%
    18:00 +37°C° 0 mm 4 mps 694 mmHg 24%
    19:00 +36°C° 0 mm 4 mps 694 mmHg 25%
    20:00 +36°C° 0 mm 4 mps 694 mmHg 28%
    21:00 +35°C° 0 mm 4 mps 694 mmHg 30%
    22:00 +34°C° 0 mm 4 mps 695 mmHg 32%
    23:00 +33°C° 0.1 mm 4 mps 694 mmHg 34%

    21 December, Thursday

    Time Temperature Precipitation Wind Pressure Humidity
    00:00 +33°C° 0.1 mm 4 mps 694 mmHg 36%
    01:00 +32°C° 0.1 mm 4 mps 694 mmHg 37%
    02:00 +30°C° 0.2 mm 4 mps 694 mmHg 43%
    03:00 +29°C° 0.2 mm 5 mps 694 mmHg 49%
    04:00 +28°C° 0.2 mm 6 mps 694 mmHg 54%
    05:00 +28°C° 0.2 mm 7 mps 695 mmHg 55%
    06:00 +28°C° 0.2 mm 7 mps 695 mmHg 55%
    07:00 +28°C° 0.2 mm 8 mps 696 mmHg 56%
    08:00 +29°C° 0.1 mm 7 mps 696 mmHg 53%
    09:00 +29°C° 0.1 mm 7 mps 696 mmHg 49%
    10:00 +30°C° 0.1 mm 6 mps 695 mmHg 46%
    11:00 +32°C° 0 mm 6 mps 695 mmHg 43%
    12:00 +33°C° 0 mm 5 mps 695 mmHg 40%
    13:00 +34°C° 0 mm 5 mps 694 mmHg 37%
    14:00 +34°C° 0.1 mm 5 mps 694 mmHg 37%
    15:00 +35°C° 0.1 mm 4 mps 694 mmHg 36%
    16:00 +35°C° 0.1 mm 4 mps 694 mmHg 36%
    17:00 +34°C° 0.6 mm 3 mps 694 mmHg 40%
    18:00 +33°C° 0.6 mm 3 mps 694 mmHg 43%
    19:00 +31°C° 0.6 mm 2 mps 694 mmHg 47%
    20:00 +31°C° 0.8 mm 2 mps 694 mmHg 50%
    21:00 +30°C° 0.8 mm 2 mps 694 mmHg 53%
    22:00 +29°C° 0.8 mm 2 mps 694 mmHg 56%
    23:00 +29°C° 0.4 mm 2 mps 694 mmHg 58%

    22 December, Friday

    Time Temperature Precipitation Wind Pressure Humidity
    00:00 +28°C° 0.4 mm 2 mps 693 mmHg 60%
    01:00 +28°C° 0.4 mm 2 mps 693 mmHg 62%
    02:00 +27°C° 0.3 mm 2 mps 693 mmHg 62%
    03:00 +27°C° 0.3 mm 3 mps 693 mmHg 63%
    04:00 +27°C° 0.3 mm 3 mps 693 mmHg 64%
    05:00 +27°C° 0.3 mm 4 mps 694 mmHg 60%
    06:00 +28°C° 0.3 mm 5 mps 694 mmHg 55%
    07:00 +29°C° 0.3 mm 6 mps 695 mmHg 51%
    08:00 +29°C° 0.2 mm 6 mps 695 mmHg 46%
    09:00 +30°C° 0.2 mm 6 mps 695 mmHg 41%
    10:00 +30°C° 0.2 mm 7 mps 695 mmHg 37%
    11:00 +32°C° 0 mm 7 mps 694 mmHg 34%
    12:00 +32°C° 0 mm 7 mps 694 mmHg 32%
    13:00 +33°C° 0 mm 7 mps 694 mmHg 30%
    14:00 +33°C° 0 mm 6 mps 694 mmHg 30%
    15:00 +32°C° 0 mm 6 mps 694 mmHg 30%
    16:00 +32°C° 0 mm 6 mps 694 mmHg 30%
    17:00 +30°C° 0 mm 5 mps 695 mmHg 31%
    18:00 +29°C° 0 mm 5 mps 695 mmHg 32%
    19:00 +28°C° 0 mm 4 mps 696 mmHg 33%
    20:00 +28°C° 0 mm 4 mps 696 mmHg 34%
    21:00 +27°C° 0 mm 4 mps 697 mmHg 34%
    22:00 +26°C° 0 mm 4 mps 697 mmHg 34%
    23:00 +25°C° 0 mm 4 mps 697 mmHg 35%
    Show more